Weather History for Monroe, NC

Change the Weather History Date:

Friday, December 6, 2013

  Actual Average (KCLT) Record (KCLT)
Temperature  
Mean Temperature 70 °F 44 °F  
Max Temperature 77 °F 55 °F 78 °F (1998)
Min Temperature 64 °F 34 °F 18 °F (1895)
Degree Days  
Heating Degree Days 0 21  
Month to date heating degree days 119  
Since 1 July heating degree days 755  
Cooling Degree Days 6 0  
Month to date cooling degree days 0  
Year to date cooling degree days 1517  
Growing Degree Days 20 (Base 50)    
Moisture  
Dew Point 62 °F    
Average Humidity 77    
Maximum Humidity 90    
Minimum Humidity 58    
Precipitation  
Precipitation 0.00 in 0.10 in 2.37 in (1983)
Month to date precipitation 0.66  
Year to date precipitation 39.04  
Snow  
Snow 0.00 in 0.00 in T in (1992)
Month to date snowfall 0.0  
Since 1 July snowfall 0.1  
Snow Depth -    
Sea Level Pressure  
Sea Level Pressure 30.05 in    
Wind  
Wind Speed 11 mph (SSW)    
Max Wind Speed 18 mph    
Max Gust Speed 29 mph    
Visibility 10 miles    
Events      
T = Trace of Precipitation, MM = Missing Value Source: NWS Daily Summary

Daily Weather History Graph

Daily Weather History Graph

Search for Another Location

Airport:

Trip Planner

Search our weather history database for the weather conditions in past years. The results will help you decide how hot, cold, wet, or windy it might be!

Date:

Astronomy

Dec. 06, 2013 Rise Set
Actual Time 7:16 AM EST 5:10 PM EST
Civil Twilight 6:48 AM EST 5:38 PM EST
Nautical Twilight 6:17 AM EST 6:10 PM EST
Astronomical Twilight 5:46 AM EST 6:40 PM EST
Moon 10:26 AM EST (12/6) 9:34 PM EST (12/6)
Length of Visible Light 10h 49m
Length of Day
9h 53m
Waxing Crescent, 19% of the Moon is Illuminated
Dec 6
Waxing Crescent
Dec 9
First Quarter
Dec 17
Full
Dec 25
Last Quarter
Jan 1
New

Hourly Weather History & Observations

Time (EST) Temp. Dew Point Humidity Pressure Visibility Wind Dir Wind Speed Gust Speed Precip Events Conditions
12:53 AM 66.9 °F 64.0 °F 90% 30.05 in 10.0 mi South 8.1 mph 16.1 mph 0.00 in   Overcast
1:53 AM 66.9 °F 63.0 °F 87% 30.05 in 10.0 mi SSW 11.5 mph - N/A   Overcast
2:53 AM 66.0 °F 62.1 °F 87% 30.04 in 10.0 mi SSW 10.4 mph 16.1 mph N/A   Partly Cloudy
3:44 AM 66.2 °F 62.6 °F 88% 30.04 in 10.0 mi SSW 10.4 mph - N/A   Mostly Cloudy
3:53 AM 66.0 °F 62.1 °F 87% 30.05 in 10.0 mi SSW 9.2 mph - N/A   Mostly Cloudy
4:04 AM 66.2 °F 62.6 °F 88% 30.03 in 10.0 mi SSW 9.2 mph - N/A   Overcast
4:53 AM 64.9 °F 61.0 °F 87% 30.04 in 10.0 mi SSW 12.7 mph 17.3 mph N/A   Clear
5:53 AM 64.9 °F 61.0 °F 87% 30.05 in 10.0 mi SSW 9.2 mph 17.3 mph N/A   Mostly Cloudy
6:53 AM 64.0 °F 60.1 °F 87% 30.06 in 10.0 mi SSW 9.2 mph - N/A   Clear
7:53 AM 64.0 °F 60.1 °F 87% 30.08 in 10.0 mi SW 9.2 mph - N/A   Clear
8:53 AM 66.0 °F 60.1 °F 81% 30.10 in 10.0 mi SSW 13.8 mph 20.7 mph N/A   Clear
9:40 AM 66.2 °F 60.8 °F 83% 30.09 in 10.0 mi SW 16.1 mph 21.9 mph N/A   Mostly Cloudy
9:53 AM 68.0 °F 61.0 °F 78% 30.11 in 10.0 mi SW 15.0 mph 21.9 mph N/A   Mostly Cloudy
10:04 AM 69.8 °F 60.8 °F 73% 30.09 in 10.0 mi SW 15.0 mph 28.8 mph N/A   Scattered Clouds
10:53 AM 72.0 °F 62.1 °F 71% 30.10 in 10.0 mi SW 18.4 mph 28.8 mph N/A   Partly Cloudy
11:53 AM 73.9 °F 63.0 °F 68% 30.08 in 10.0 mi SSW 11.5 mph 20.7 mph N/A   Scattered Clouds
12:53 PM 75.9 °F 63.0 °F 64% 30.04 in 10.0 mi SSW 15.0 mph 23.0 mph N/A   Partly Cloudy
1:53 PM 75.9 °F 62.1 °F 62% 30.01 in 10.0 mi SW 16.1 mph 23.0 mph N/A   Clear
2:53 PM 77.0 °F 61.0 °F 58% 30.00 in 10.0 mi SSW 15.0 mph 24.2 mph N/A   Clear
3:53 PM 77.0 °F 61.0 °F 58% 30.00 in 10.0 mi SSW 10.4 mph 17.3 mph N/A   Mostly Cloudy
4:53 PM 75.9 °F 62.1 °F 62% 30.01 in 10.0 mi SSW 9.2 mph - N/A   Mostly Cloudy
5:53 PM 73.0 °F 61.0 °F 66% 30.02 in 10.0 mi SSW 6.9 mph - N/A   Mostly Cloudy
6:53 PM 72.0 °F 63.0 °F 73% 30.03 in 10.0 mi SSW 6.9 mph - N/A   Clear
7:53 PM 71.1 °F 63.0 °F 75% 30.03 in 10.0 mi SSW 10.4 mph - N/A   Clear
8:53 PM 71.1 °F 63.0 °F 75% 30.01 in 10.0 mi SSW 9.2 mph - N/A   Clear
9:53 PM 71.1 °F 63.0 °F 75% 30.02 in 10.0 mi SSW 9.2 mph 17.3 mph N/A   Clear
10:53 PM 70.0 °F 62.1 °F 76% 30.04 in 10.0 mi SSW 8.1 mph - N/A   Clear
11:53 PM 69.1 °F 62.1 °F 78% 30.03 in 10.0 mi SSW 9.2 mph - N/A   Partly Cloudy